Weather History for Haines, AK

Change the Weather History Date:

Saturday, June 22, 2013

  Actual Average Record
Temperature  
Mean Temperature 59 °F -  
Max Temperature 62 °F 63 °F 87 °F (1997)
Min Temperature 57 °F 47 °F 39 °F (1978)
Degree Days  
Heating Degree Days 6    
Growing Degree Days 9 (Base 50)    
Moisture  
Dew Point 54 °F    
Average Humidity 81    
Maximum Humidity 87    
Minimum Humidity 70    
Precipitation  
Precipitation 0.00 in - - ()
Sea Level Pressure  
Sea Level Pressure 29.98 in    
Wind  
Wind Speed 7 mph (ESE)    
Max Wind Speed 13 mph    
Max Gust Speed 20 mph    
Visibility 10 miles    
Events Rain    
Averages and records for this station are not official NWS values.
T = Trace of Precipitation, MM = Missing Value Source: NWS Daily Summary

Daily Weather History Graph

Daily Weather History Graph

Search for Another Location

Airport:

Trip Planner

Search our weather history database for the weather conditions in past years. The results will help you decide how hot, cold, wet, or windy it might be!

Date:

Astronomy

Jun. 22, 2013 Rise Set
Actual Time 3:46 AM AKDT 10:21 PM AKDT
Civil Twilight 2:16 AM AKDT 11:51 PM AKDT
Nautical Twilight Sun does not rise Sun does not rise
Astronomical Twilight Sun does not rise Sun does not rise
Moon 9:20 PM AKDT (6/22) 3:29 AM AKDT (6/22)
Length of Visible Light 21h 35m
Length of Day
18h 35m
Waxing Gibbous, 99% of the Moon is Illuminated
Jun 22
Waxing Gibbous
Jun 23
Full
Jun 29
Last Quarter
Jul 7
New
Jul 15
First Quarter

Hourly Weather History & Observations

Time (AKDT) Temp. Dew Point Humidity Pressure Visibility Wind Dir Wind Speed Gust Speed Precip Events Conditions
12:54 AM 60.1 °F 51.1 °F 72% 29.97 in 10.0 mi East 4.6 mph - N/A   Clear
1:54 AM 59.0 °F 51.1 °F 75% 29.98 in 10.0 mi East 4.6 mph - N/A   Clear
2:54 AM 61.0 °F 51.1 °F 70% 29.98 in 10.0 mi East 5.8 mph - N/A   Clear
3:54 AM 59.0 °F 51.1 °F 75% 29.98 in 10.0 mi East 5.8 mph - N/A   Clear
4:54 AM 57.9 °F 52.0 °F 81% 29.99 in 10.0 mi East 4.6 mph - N/A   Mostly Cloudy
5:54 AM 59.0 °F 53.1 °F 81% 29.99 in 10.0 mi ESE 4.6 mph - N/A   Partly Cloudy
6:34 AM 59.0 °F 53.6 °F 82% 29.99 in 10.0 mi East 4.6 mph - N/A   Overcast
6:54 AM 59.0 °F 53.1 °F 81% 30.00 in 10.0 mi East 4.6 mph - N/A   Overcast
7:54 AM 59.0 °F 54.0 °F 83% 30.00 in 10.0 mi East 5.8 mph - N/A   Overcast
8:54 AM 61.0 °F 55.0 °F 81% 30.01 in 10.0 mi Variable 5.8 mph - N/A   Overcast
9:33 AM 60.8 °F 55.4 °F 82% 30.00 in 10.0 mi Variable 6.9 mph - N/A   Overcast
9:49 AM 60.8 °F 55.4 °F 82% 30.00 in 10.0 mi East 10.4 mph 18.4 mph N/A   Overcast
9:54 AM 61.0 °F 55.0 °F 81% 30.01 in 10.0 mi East 8.1 mph 18.4 mph N/A   Overcast
10:03 AM 60.8 °F 55.4 °F 82% 30.00 in 10.0 mi East 6.9 mph - N/A   Overcast
10:54 AM 60.1 °F 55.0 °F 83% 30.01 in 10.0 mi East 6.9 mph - N/A   Overcast
11:54 AM 59.0 °F 55.0 °F 87% 30.01 in 10.0 mi SE 10.4 mph - N/A   Overcast
12:54 PM 59.0 °F 54.0 °F 83% 30.01 in 10.0 mi ESE 12.7 mph 17.3 mph N/A   Overcast
1:22 PM 60.8 °F 55.4 °F 82% 30.00 in 10.0 mi East 6.9 mph - N/A   Overcast
1:46 PM 60.8 °F 55.4 °F 82% 30.00 in 10.0 mi SE 9.2 mph - 0.00 in Rain Light Rain
1:54 PM 60.1 °F 55.0 °F 83% 30.00 in 10.0 mi ESE 8.1 mph - 0.00 in Rain Light Rain
2:01 PM 60.8 °F 55.4 °F 82% 29.99 in 10.0 mi ESE 6.9 mph - 0.00 in   Overcast
2:54 PM 60.1 °F 55.0 °F 83% 29.99 in 10.0 mi SE 12.7 mph 19.6 mph 0.00 in   Overcast
3:54 PM 60.1 °F 54.0 °F 80% 29.98 in 10.0 mi SE 9.2 mph - N/A   Overcast
4:54 PM 59.0 °F 54.0 °F 83% 29.96 in 10.0 mi SE 10.4 mph - N/A   Overcast
5:54 PM 60.1 °F 54.0 °F 80% 29.95 in 10.0 mi SE 9.2 mph - N/A   Overcast
6:54 PM 60.1 °F 54.0 °F 80% 29.94 in 10.0 mi East 6.9 mph - N/A   Overcast
7:54 PM 57.9 °F 53.1 °F 84% 29.93 in 10.0 mi East 8.1 mph - N/A   Overcast
8:54 PM 59.0 °F 53.1 °F 81% 29.92 in 10.0 mi Variable 6.9 mph - N/A   Overcast
9:54 PM 57.0 °F 53.1 °F 87% 29.92 in 10.0 mi East 5.8 mph - N/A   Overcast
10:54 PM 57.0 °F 53.1 °F 87% 29.92 in 10.0 mi East 9.2 mph - N/A   Overcast
11:54 PM 57.0 °F 53.1 °F 87% 29.91 in 10.0 mi East 8.1 mph - N/A   Overcast